Powrót do katalogu

BEIDOU 3M6

AktywnyNawigacjaMEO
NORAD 43208·PAYLOAD·🇨🇳 China

Wystrzelony Feb 12, 2018 z Xichang Satellite Launch Center

Loading…

Następne Przeloty (najbliższe 24 godziny)

TLE

ŚwieżeSource: CelesTrak SupGP

Epoka: Sep 14, 2026, 00:00 UTC

1 43208C 18018B   26257.00000000  .00000000  00000+0  00000+0 0  2572
2 43208  56.7323  60.2287 0005246 344.4657 105.7273  1.86231288    15

Śledź BEIDOU 3M6 w czasie rzeczywistym z AllMySat

Download on the App Store